Weather History for KPHX - August, 2014

Change the Weather History Date:

Friday, August 1, 2014

  Actual Average Record
Temperature  
Mean Temperature 90 °F 94 °F  
Max Temperature 99 °F 105 °F 116 °F (1972)
Min Temperature 81 °F 84 °F 68 °F (1950)
Degree Days  
Heating Degree Days 0 0  
Month to date heating degree days 0 0  
Since 1 June heating degree days 0 0  
Since 1 July heating degree days 0 0  
Cooling Degree Days 25 29  
Month to date cooling degree days 25 29  
Year to date cooling degree days 2939 2613  
Since 1 June cooling degree days 1864 1727  
Growing Degree Days 40 (Base 50)    
Moisture  
Dew Point 63 °F    
Average Humidity 45    
Maximum Humidity 63    
Minimum Humidity 27    
Precipitation  
Precipitation T in 0.03 in 1.48 in (1919)
Month to date precipitation T 0.03  
Year to date precipitation 1.05 4.31  
Snow  
Snow 0.00 in - - ()
Month to date snowfall 0.0  
Year to date snowfall 0.0  
Since 1 July snowfall 0.0  
Snow Depth 0.00 in    
Sea Level Pressure  
Sea Level Pressure 29.86 in    
Wind  
Wind Speed 7 mph (South)    
Max Wind Speed 29 mph    
Max Gust Speed 33 mph    
Visibility 10 miles    
Events Rain , Thunderstorm    
T = Trace of Precipitation, MM = Missing Value Source: NWS Daily Summary

Daily Weather History Graph

Daily Weather History Graph

Search for Another Location

Airport or City:

Trip Planner

Search our weather history database for the weather conditions in past years. The results will help you decide how hot, cold, wet, or windy it might be!

Date:

Astronomy

Aug. 01, 2014 Rise Set
Actual Time 5:40 AM MST 7:27 PM MST
Civil Twilight 5:13 AM MST 7:54 PM MST
Nautical Twilight 4:40 AM MST 8:27 PM MST
Astronomical Twilight 4:05 AM MST 9:01 PM MST
Moon 10:49 AM MST (8/1) 10:34 PM MST (8/1)
Length of Visible Light 14h 41m
Length of Day
13h 46m
Waxing Crescent, 28% of the Moon is Illuminated
Aug 1
Waxing Crescent
Aug 3
First Quarter
Aug 10
Full
Aug 17
Last Quarter
Aug 25
New

Hourly Weather History & Observations

Time (MST) Temp. Heat Index Dew Point Humidity Pressure Visibility Wind Dir Wind Speed Gust Speed Precip Events Conditions
12:35 AM 86.0 °F 90.7 °F 70.0 °F 59% 29.89 in 10.0 mi West 18.4 mph - 0.00 in Rain Light Rain
12:51 AM 84.9 °F 88.8 °F 69.1 °F 59% 29.84 in 10.0 mi West 6.9 mph - 0.00 in Rain Light Rain
1:51 AM 84.9 °F 87.6 °F 66.9 °F 55% 29.86 in 10.0 mi South 10.4 mph - 0.00 in   Overcast
2:51 AM 82.9 °F 85.0 °F 66.0 °F 56% 29.85 in 10.0 mi SSE 12.7 mph - 0.00 in Rain Light Rain
3:51 AM 82.0 °F 84.5 °F 66.9 °F 60% 29.81 in 10.0 mi SSE 20.7 mph 27.6 mph 0.00 in Rain Light Rain
4:51 AM 82.4 °F 84.6 °F 66.2 °F 58% 29.92 in 10.0 mi SE 9.2 mph - N/A Rain Light Rain
5:51 AM 81.0 °F 83.8 °F 68.0 °F 65% 29.89 in 10.0 mi South 4.6 mph - 0.00 in   Overcast
6:51 AM 82.9 °F 85.0 °F 66.0 °F 56% 29.92 in 10.0 mi ESE 4.6 mph - 0.00 in   Overcast
7:51 AM 84.2 °F 87.3 °F 68.0 °F 58% 29.99 in 10.0 mi SE 6.9 mph - N/A   Overcast
8:51 AM 84.0 °F 87.0 °F 68.0 °F 58% 29.92 in 10.0 mi SE 8.1 mph - N/A   Overcast
9:51 AM 88.0 °F 89.6 °F 64.9 °F 46% 29.91 in 10.0 mi SSW 5.8 mph - N/A   Mostly Cloudy
10:51 AM 89.1 °F 91.0 °F 64.9 °F 45% 29.91 in 10.0 mi Variable 4.6 mph - N/A   Mostly Cloudy
11:51 AM 91.0 °F 91.9 °F 63.0 °F 39% 29.90 in 10.0 mi Variable 3.5 mph - N/A   Mostly Cloudy
12:51 PM 93.0 °F 94.6 °F 64.0 °F 38% 29.87 in 10.0 mi South 10.4 mph - N/A   Mostly Cloudy
1:51 PM 96.8 °F 97.1 °F 60.8 °F 30% 29.89 in 10.0 mi SSW 5.8 mph - N/A   Mostly Cloudy
2:51 PM 95.0 °F 94.8 °F 60.1 °F 31% 29.81 in 10.0 mi Variable 3.5 mph - N/A   Mostly Cloudy
3:51 PM 98.1 °F 98.6 °F 61.0 °F 29% 29.78 in 10.0 mi South 8.1 mph 18.4 mph N/A   Mostly Cloudy
4:51 PM 97.0 °F 96.1 °F 57.9 °F 27% 29.76 in 10.0 mi SW 6.9 mph - N/A   Mostly Cloudy
5:51 PM 97.0 °F 96.1 °F 57.9 °F 27% 29.76 in 10.0 mi SSE 6.9 mph - N/A   Mostly Cloudy
6:51 PM 97.0 °F 95.7 °F 57.0 °F 26% 29.76 in 10.0 mi South 4.6 mph - N/A   Mostly Cloudy
7:51 PM 96.1 °F 94.8 °F 57.0 °F 27% 29.78 in 10.0 mi South 3.5 mph - N/A   Mostly Cloudy
8:15 PM 95.0 °F 93.7 °F 57.0 °F 28% 29.86 in 10.0 mi ESE 3.5 mph - N/A Thunderstorm Thunderstorm
8:47 PM 93.2 °F 91.9 °F 57.2 °F 30% 29.87 in 10.0 mi SE 5.8 mph - N/A   Mostly Cloudy
8:51 PM 95.0 °F 93.7 °F 57.2 °F 28% 29.87 in 10.0 mi SE 5.8 mph - N/A   Mostly Cloudy
9:51 PM 82.9 °F 85.8 °F 68.0 °F 60% 29.86 in 10.0 mi NNW 10.4 mph 23.0 mph N/A   Mostly Cloudy
10:51 PM 86.0 °F 87.3 °F 64.0 °F 48% 29.85 in 10.0 mi SW 9.2 mph - N/A   Mostly Cloudy
11:51 PM 84.9 °F 86.1 °F 64.0 °F 49% 29.85 in 10.0 mi Calm Calm - N/A   Scattered Clouds